Погода в Наре

Россия / Республика Северная Осетия — Алания     42°40′47″N   44°01′17″E
темп.,
°C
ветер,
м/с
пор.,
м/с
влажн.,
%
обл.,
%
осадки,
мм/ч
давл.,
гПа
погр.,
м
25 февраля, чт
чт2500:00−16юз33895 0.0 103734
03:00−16юз238711 0.0 103632
06:00−16зюз117761 0.0 103623
09:00−10ссв116073 0.0 103690
12:00−7вюв015156 0.0 1034550
15:00−6юз118135 0.0 1032447
18:00−12юз229673 0.1 103321
21:00−12юз128672 0.1 103424
26 февраля, пт
пт2600:00−10юз127993 0.1 103226
03:00−10с119096 0.2 103125
06:00−11ссв129595 0.1 103121
09:00−7ссв228371 0.1 1029144
12:00−3св22817 0.0 1027336
15:00−3всв119028 0.0 1026276
18:00−7св1110083 0.1 102643
21:00−9св119990 0.1 102736
27 февраля, сб
сб2700:00−11зюз118982 0.0 102621
03:00−11ююз118141 0.0 102521
06:00−11ююз11800 0.0 102321
09:00−6ююз22800 0.0 1022117
12:00−3ююз34810 0.0 1019391
15:00−4ююз348515 0.0 1017393
18:00−11ююз339352 0.0 101850
21:00−12ююз338039 0.0 101844
28 февраля, вс
вс2800:00−12ююз45779 0.0 101768
03:00−12ююз45815 0.0 101685
06:00−12ююз459018 0.0 101682
09:00−8юз689031 0.1 1015292
12:00−6юз678758 0.3 1015611
15:00−6юз578553 0.6 1015606
18:00−10ююз459342 0.4 1017113
21:00−11ююз449449 0.7 101963
1 марта, пн
пн100:00−12ююз349559 0.3 102153
03:00−13юз339459 0.5 102242
06:00−15юз339659 0.2 102331
09:00−11юз239170 0.3 1024334
12:00−8юз348399 0.3 1024695
15:00−9юз2384100 0.8 1024632
18:00−13зюз1299100 0.3 102637
21:00−16юз1196100 0.4 102820